Year,Month,Day,Hour,Minute,Value (Times are PST for temperature in C)
2018,04,07,00,00,10.30
2018,04,07,00,01,10.30
2018,04,07,00,02,10.30
2018,04,07,00,03,10.30
2018,04,07,00,04,10.30
2018,04,07,00,05,10.30
2018,04,07,00,06,10.30
2018,04,07,00,07,10.20
2018,04,07,00,08,10.20
2018,04,07,00,09,10.20
2018,04,07,00,10,10.20
2018,04,07,00,11,10.20
2018,04,07,00,12,10.20
2018,04,07,00,13,10.20
2018,04,07,00,14,10.20
2018,04,07,00,15,10.10
2018,04,07,00,16,10.10
2018,04,07,00,17,10.10
2018,04,07,00,18,10.10
2018,04,07,00,19,10.10
2018,04,07,00,20,10.10
2018,04,07,00,21,10.10
2018,04,07,00,22,10.10
2018,04,07,00,23,10.10
2018,04,07,00,24,10.10
2018,04,07,00,25,10.00
2018,04,07,00,26,10.00
2018,04,07,00,27,10.00
2018,04,07,00,28,9.90
2018,04,07,00,29,9.90
2018,04,07,00,30,9.90
2018,04,07,00,31,9.90
2018,04,07,00,32,9.90
2018,04,07,00,33,9.90
2018,04,07,00,34,9.80
2018,04,07,00,35,9.80
2018,04,07,00,36,9.80
2018,04,07,00,37,9.80
2018,04,07,00,38,9.70
2018,04,07,00,39,9.70
2018,04,07,00,40,9.70
2018,04,07,00,41,9.70
2018,04,07,00,42,9.60
2018,04,07,00,43,9.60
2018,04,07,00,44,9.60
2018,04,07,00,45,9.60
2018,04,07,00,46,9.60
2018,04,07,00,47,9.50
2018,04,07,00,48,9.50
2018,04,07,00,49,9.50
2018,04,07,00,50,9.50
2018,04,07,00,51,9.50
2018,04,07,00,52,9.40
2018,04,07,00,53,9.40
2018,04,07,00,54,9.40
2018,04,07,00,55,9.40
2018,04,07,00,56,9.50
2018,04,07,00,57,9.50
2018,04,07,00,58,9.50
2018,04,07,00,59,9.50
2018,04,07,01,00,9.50
2018,04,07,01,01,9.50
2018,04,07,01,02,9.40
2018,04,07,01,03,9.40
2018,04,07,01,04,9.40
2018,04,07,01,05,9.40
2018,04,07,01,06,9.40
2018,04,07,01,07,9.30
2018,04,07,01,08,9.30
2018,04,07,01,09,9.30
2018,04,07,01,10,9.30
2018,04,07,01,11,9.30
2018,04,07,01,12,9.30
2018,04,07,01,13,9.30
2018,04,07,01,14,9.30
2018,04,07,01,15,9.20
2018,04,07,01,16,9.20
2018,04,07,01,17,9.20
2018,04,07,01,18,9.20
2018,04,07,01,19,9.30
2018,04,07,01,20,9.30
2018,04,07,01,21,9.30
2018,04,07,01,22,9.30
2018,04,07,01,23,9.30
2018,04,07,01,24,9.30
2018,04,07,01,25,9.30
2018,04,07,01,26,9.30
2018,04,07,01,27,9.30
2018,04,07,01,28,9.30
2018,04,07,01,29,9.30
2018,04,07,01,30,9.30
2018,04,07,01,31,9.30
2018,04,07,01,32,9.30
2018,04,07,01,33,9.20
2018,04,07,01,34,9.20
2018,04,07,01,35,9.30
2018,04,07,01,36,9.30
2018,04,07,01,37,9.30
2018,04,07,01,38,9.30
2018,04,07,01,39,9.30
2018,04,07,01,40,9.30
2018,04,07,01,41,9.30
2018,04,07,01,42,9.30
2018,04,07,01,43,9.30
2018,04,07,01,44,9.30
2018,04,07,01,45,9.30
2018,04,07,01,46,9.30
2018,04,07,01,47,9.30
2018,04,07,01,48,9.30
2018,04,07,01,49,9.30
2018,04,07,01,50,9.30
2018,04,07,01,51,9.30
2018,04,07,01,52,9.30
2018,04,07,01,53,9.30
2018,04,07,01,54,9.30
2018,04,07,01,55,9.30
2018,04,07,01,56,9.30
2018,04,07,01,57,9.30
2018,04,07,01,58,9.30
2018,04,07,01,59,9.20
2018,04,07,02,00,9.30
2018,04,07,02,01,9.30
2018,04,07,02,02,9.30
2018,04,07,02,03,9.30
2018,04,07,02,04,9.30
2018,04,07,02,05,9.30
2018,04,07,02,06,9.30
2018,04,07,02,07,9.30
2018,04,07,02,08,9.30
2018,04,07,02,09,9.30
2018,04,07,02,10,9.30
2018,04,07,02,11,9.20
2018,04,07,02,12,9.30
2018,04,07,02,13,9.30
2018,04,07,02,14,9.30
2018,04,07,02,15,9.30
2018,04,07,02,16,9.30
2018,04,07,02,17,9.30
2018,04,07,02,18,9.30
2018,04,07,02,19,9.30
2018,04,07,02,20,9.30
2018,04,07,02,21,9.30
2018,04,07,02,22,9.30
2018,04,07,02,23,9.30
2018,04,07,02,24,9.30
2018,04,07,02,25,9.30
2018,04,07,02,26,9.30
2018,04,07,02,27,9.30
2018,04,07,02,28,9.30
2018,04,07,02,29,9.30
2018,04,07,02,30,9.30
2018,04,07,02,31,9.30
2018,04,07,02,32,9.30
2018,04,07,02,33,9.40
2018,04,07,02,34,9.40
2018,04,07,02,35,9.40
2018,04,07,02,36,9.40
2018,04,07,02,37,9.40
2018,04,07,02,38,9.40
2018,04,07,02,39,9.40
2018,04,07,02,40,9.30
2018,04,07,02,41,9.30
2018,04,07,02,42,9.30
2018,04,07,02,43,9.30
2018,04,07,02,44,9.30
2018,04,07,02,45,9.30
2018,04,07,02,46,9.30
2018,04,07,02,47,9.30
2018,04,07,02,48,9.30
2018,04,07,02,49,9.30
2018,04,07,02,50,9.30
2018,04,07,02,51,9.30
2018,04,07,02,52,9.30
2018,04,07,02,53,9.40
2018,04,07,02,54,9.40
2018,04,07,02,55,9.30
2018,04,07,02,56,9.30
2018,04,07,02,57,9.30
2018,04,07,02,58,9.30
2018,04,07,02,59,9.30
2018,04,07,03,00,9.30
2018,04,07,03,01,9.30
2018,04,07,03,02,9.30
2018,04,07,03,03,9.30
2018,04,07,03,04,9.30
2018,04,07,03,05,9.40
2018,04,07,03,06,9.40
2018,04,07,03,07,9.40
2018,04,07,03,08,9.40
2018,04,07,03,09,9.40
2018,04,07,03,10,9.40
2018,04,07,03,11,9.40
2018,04,07,03,12,9.40
2018,04,07,03,13,9.40
2018,04,07,03,14,9.40
2018,04,07,03,15,9.40
2018,04,07,03,16,9.40
2018,04,07,03,17,9.40
2018,04,07,03,18,9.40
2018,04,07,03,19,9.40
2018,04,07,03,20,9.40
2018,04,07,03,21,9.40
2018,04,07,03,22,9.40
2018,04,07,03,23,9.50
2018,04,07,03,24,9.50
2018,04,07,03,25,9.50
2018,04,07,03,26,9.60
2018,04,07,03,27,9.60
2018,04,07,03,28,9.60
2018,04,07,03,29,9.60
2018,04,07,03,30,9.60
2018,04,07,03,31,9.60
2018,04,07,03,32,9.60
2018,04,07,03,33,9.60
2018,04,07,03,34,9.60
2018,04,07,03,35,9.60
2018,04,07,03,36,9.60
2018,04,07,03,37,9.60
2018,04,07,03,38,9.70
2018,04,07,03,39,9.60
2018,04,07,03,40,9.60
2018,04,07,03,41,9.70
2018,04,07,03,42,9.70
2018,04,07,03,43,9.70
2018,04,07,03,44,9.70
2018,04,07,03,45,9.70
2018,04,07,03,46,9.70
2018,04,07,03,47,9.70
2018,04,07,03,48,9.70
2018,04,07,03,49,9.70
2018,04,07,03,50,9.70
2018,04,07,03,51,9.70
2018,04,07,03,52,9.70
2018,04,07,03,53,9.70
2018,04,07,03,54,9.60
2018,04,07,03,55,9.60
2018,04,07,03,56,9.60
2018,04,07,03,57,9.60
2018,04,07,03,58,9.60
2018,04,07,03,59,9.60
2018,04,07,04,00,9.60
2018,04,07,04,01,9.60
2018,04,07,04,02,9.60
2018,04,07,04,03,9.60
2018,04,07,04,04,9.60
2018,04,07,04,05,9.70
2018,04,07,04,06,9.70
2018,04,07,04,07,9.70
2018,04,07,04,08,9.70
2018,04,07,04,09,9.70
2018,04,07,04,10,9.70
2018,04,07,04,11,9.70
2018,04,07,04,12,9.70
2018,04,07,04,13,9.70
2018,04,07,04,14,9.70
2018,04,07,04,15,9.70
2018,04,07,04,16,9.70
2018,04,07,04,17,9.70
2018,04,07,04,18,9.70
2018,04,07,04,19,9.70
2018,04,07,04,20,9.70
2018,04,07,04,21,9.70
2018,04,07,04,22,9.70
2018,04,07,04,23,9.70
2018,04,07,04,24,9.70
2018,04,07,04,25,9.70
2018,04,07,04,26,9.70
2018,04,07,04,27,9.70
2018,04,07,04,28,9.70
2018,04,07,04,29,9.70
2018,04,07,04,30,9.70
2018,04,07,04,31,9.70
2018,04,07,04,32,9.70
2018,04,07,04,33,9.70
2018,04,07,04,34,9.70
2018,04,07,04,35,9.70
2018,04,07,04,36,9.70
2018,04,07,04,37,9.70
2018,04,07,04,38,9.70
2018,04,07,04,39,9.70
2018,04,07,04,40,9.70
2018,04,07,04,41,9.70
2018,04,07,04,42,9.70
2018,04,07,04,43,9.70
2018,04,07,04,44,9.70
2018,04,07,04,45,9.70
2018,04,07,04,46,9.70
2018,04,07,04,47,9.70
2018,04,07,04,48,9.60
2018,04,07,04,49,9.60
2018,04,07,04,50,9.60
2018,04,07,04,51,9.60
2018,04,07,04,52,9.60
2018,04,07,04,53,9.60
2018,04,07,04,54,9.60
2018,04,07,04,55,9.60
2018,04,07,04,56,9.60
2018,04,07,04,57,9.60
2018,04,07,04,58,9.60
2018,04,07,04,59,9.60
2018,04,07,05,00,9.60
2018,04,07,05,01,9.60
2018,04,07,05,02,9.60
2018,04,07,05,03,9.60
2018,04,07,05,04,9.60
2018,04,07,05,05,9.60
2018,04,07,05,06,9.60
2018,04,07,05,07,9.60
2018,04,07,05,08,9.60
2018,04,07,05,09,9.60
2018,04,07,05,10,9.60
2018,04,07,05,11,9.60
2018,04,07,05,12,9.60
2018,04,07,05,13,9.60
2018,04,07,05,14,9.60
2018,04,07,05,15,9.60
2018,04,07,05,16,9.60
2018,04,07,05,17,9.60
2018,04,07,05,18,9.60
2018,04,07,05,19,9.60
2018,04,07,05,20,9.60
2018,04,07,05,21,9.60
2018,04,07,05,22,9.60
2018,04,07,05,23,9.60
2018,04,07,05,24,9.60
2018,04,07,05,25,9.60
2018,04,07,05,26,9.60
2018,04,07,05,27,9.60
2018,04,07,05,28,9.60
2018,04,07,05,29,9.60
2018,04,07,05,30,9.60
2018,04,07,05,31,9.60
2018,04,07,05,32,9.60
2018,04,07,05,33,9.60
2018,04,07,05,34,9.60
2018,04,07,05,35,9.60
2018,04,07,05,36,9.60
2018,04,07,05,37,9.50
2018,04,07,05,38,9.50
2018,04,07,05,39,9.50
2018,04,07,05,40,9.50
2018,04,07,05,41,9.50
2018,04,07,05,42,9.50
2018,04,07,05,43,9.50
2018,04,07,05,44,9.60
2018,04,07,05,45,9.60
2018,04,07,05,46,9.60
2018,04,07,05,47,9.60
2018,04,07,05,48,9.60
2018,04,07,05,49,9.60
2018,04,07,05,50,9.60
2018,04,07,05,51,9.60
2018,04,07,05,52,9.60
2018,04,07,05,53,9.60
2018,04,07,05,54,9.60
2018,04,07,05,55,9.60
2018,04,07,05,56,9.60
2018,04,07,05,57,9.60
2018,04,07,05,58,9.60
2018,04,07,05,59,9.60
2018,04,07,06,00,9.60
2018,04,07,06,01,9.60
2018,04,07,06,02,9.60
2018,04,07,06,03,9.60
2018,04,07,06,04,9.60
2018,04,07,06,05,9.60
2018,04,07,06,06,9.60
2018,04,07,06,07,9.60
2018,04,07,06,08,9.60
2018,04,07,06,09,9.70
2018,04,07,06,10,9.60
2018,04,07,06,11,9.70
2018,04,07,06,12,9.70
2018,04,07,06,13,9.70
2018,04,07,06,14,9.70
2018,04,07,06,15,9.70
2018,04,07,06,16,9.70
2018,04,07,06,17,9.70
2018,04,07,06,18,9.70
2018,04,07,06,19,9.70
2018,04,07,06,20,9.70
2018,04,07,06,21,9.70
2018,04,07,06,22,9.70
2018,04,07,06,23,9.60
2018,04,07,06,24,9.60
2018,04,07,06,25,9.60
2018,04,07,06,26,9.60
2018,04,07,06,27,9.60
2018,04,07,06,28,9.60
2018,04,07,06,29,9.60
2018,04,07,06,30,9.60
2018,04,07,06,31,9.60
2018,04,07,06,32,9.60
2018,04,07,06,33,9.70
2018,04,07,06,34,9.70
2018,04,07,06,35,9.70
2018,04,07,06,36,9.70
2018,04,07,06,37,9.70
2018,04,07,06,38,9.70
2018,04,07,06,39,9.80
2018,04,07,06,40,9.80
2018,04,07,06,41,9.80
2018,04,07,06,42,9.80
2018,04,07,06,43,9.80
2018,04,07,06,44,9.80
2018,04,07,06,45,9.80
2018,04,07,06,46,9.80
2018,04,07,06,47,9.80
2018,04,07,06,48,9.80
2018,04,07,06,49,9.80
2018,04,07,06,50,9.80
2018,04,07,06,51,9.80
2018,04,07,06,52,9.80
2018,04,07,06,53,9.80
2018,04,07,06,54,9.80
2018,04,07,06,55,9.80
2018,04,07,06,56,9.80
2018,04,07,06,57,9.80
2018,04,07,06,58,9.80
2018,04,07,06,59,9.80
2018,04,07,07,00,9.80
2018,04,07,07,01,9.80
2018,04,07,07,02,9.80
2018,04,07,07,03,9.80
2018,04,07,07,04,9.80
2018,04,07,07,05,9.80
2018,04,07,07,06,9.80
2018,04,07,07,07,9.80
2018,04,07,07,08,9.80
2018,04,07,07,09,9.80
2018,04,07,07,10,9.80
2018,04,07,07,11,9.80
2018,04,07,07,12,9.80
2018,04,07,07,13,9.90
2018,04,07,07,14,9.90
2018,04,07,07,15,9.90
2018,04,07,07,16,9.90
2018,04,07,07,17,9.90
2018,04,07,07,18,9.90
2018,04,07,07,19,9.90
2018,04,07,07,20,9.90
2018,04,07,07,21,9.90
2018,04,07,07,22,9.90
2018,04,07,07,23,9.90
2018,04,07,07,24,9.90
2018,04,07,07,25,9.90
2018,04,07,07,26,10.00
2018,04,07,07,27,10.00
2018,04,07,07,28,10.00
2018,04,07,07,29,10.00
2018,04,07,07,30,10.00
2018,04,07,07,31,10.10
2018,04,07,07,32,10.10
2018,04,07,07,33,10.10
2018,04,07,07,34,10.10
2018,04,07,07,35,10.10
2018,04,07,07,36,10.20
2018,04,07,07,37,10.20
2018,04,07,11,07,12.20
2018,04,07,11,08,12.30
2018,04,07,11,09,12.30
2018,04,07,11,10,12.30
2018,04,07,11,11,12.30
2018,04,07,11,12,12.20
2018,04,07,11,13,12.20
2018,04,07,11,14,12.20
2018,04,07,11,15,12.30
2018,04,07,11,16,12.30
2018,04,07,11,17,12.30
2018,04,07,11,18,12.30
2018,04,07,11,19,12.30
2018,04,07,11,20,12.30
2018,04,07,11,21,12.30
2018,04,07,11,22,12.30
2018,04,07,11,23,12.30
2018,04,07,11,24,12.30
2018,04,07,11,25,12.30
2018,04,07,11,26,12.30
2018,04,07,11,27,12.30
2018,04,07,11,28,12.30
2018,04,07,11,29,12.30
2018,04,07,11,30,12.30
2018,04,07,11,31,12.20
2018,04,07,11,32,12.30
2018,04,07,11,33,12.30
2018,04,07,11,34,12.30
2018,04,07,11,35,12.40
2018,04,07,11,36,12.40
2018,04,07,11,37,12.50
2018,04,07,11,38,12.50
2018,04,07,11,39,12.70
2018,04,07,11,40,12.70
2018,04,07,11,41,12.80
2018,04,07,11,42,12.80
2018,04,07,11,43,12.90
2018,04,07,11,44,13.00
2018,04,07,11,45,13.10
2018,04,07,11,46,13.20
2018,04,07,11,47,13.30
2018,04,07,11,48,13.30
2018,04,07,11,49,13.30
2018,04,07,11,50,13.30
2018,04,07,11,51,13.30
2018,04,07,11,52,13.30
2018,04,07,11,53,13.30
2018,04,07,11,54,13.30
2018,04,07,11,55,13.40
2018,04,07,11,56,13.50
2018,04,07,11,57,13.50
2018,04,07,11,58,13.50
2018,04,07,11,59,13.60
2018,04,07,12,00,13.60
2018,04,07,12,01,13.60
2018,04,07,12,02,13.60
2018,04,07,12,03,13.50
2018,04,07,12,04,13.40
2018,04,07,12,05,13.40
2018,04,07,12,06,13.40
2018,04,07,12,07,13.40
2018,04,07,12,08,13.40
2018,04,07,12,09,13.40
2018,04,07,12,10,13.40
2018,04,07,12,11,13.40
2018,04,07,12,12,13.40
2018,04,07,12,13,13.30
2018,04,07,12,14,13.30
2018,04,07,12,15,13.40
2018,04,07,12,16,13.40
2018,04,07,12,17,13.40
2018,04,07,12,18,13.40
2018,04,07,12,19,13.30
2018,04,07,12,20,13.30
2018,04,07,12,21,13.30
2018,04,07,12,22,13.30
2018,04,07,12,23,13.20
2018,04,07,12,24,13.20
2018,04,07,12,25,13.20
2018,04,07,12,26,13.10
2018,04,07,12,27,13.20
2018,04,07,12,28,13.20
2018,04,07,12,29,13.20
2018,04,07,12,30,13.20
2018,04,07,12,31,13.20
2018,04,07,12,32,13.20
2018,04,07,12,33,13.20
2018,04,07,12,34,13.30
2018,04,07,12,35,13.30
2018,04,07,12,36,13.30
2018,04,07,12,37,13.30
2018,04,07,12,38,13.40
2018,04,07,12,39,13.40
2018,04,07,12,40,13.40
2018,04,07,12,41,13.50
2018,04,07,12,42,13.50
2018,04,07,12,43,13.60
2018,04,07,12,44,13.60
2018,04,07,12,45,13.50
2018,04,07,12,46,13.50
2018,04,07,12,47,13.40
2018,04,07,12,48,13.40
2018,04,07,12,49,13.30
2018,04,07,12,50,13.30
2018,04,07,12,51,13.30
2018,04,07,12,52,13.20
2018,04,07,12,53,13.20
2018,04,07,12,54,13.10
2018,04,07,12,55,13.10
2018,04,07,12,56,13.10
2018,04,07,12,57,13.10
2018,04,07,12,58,13.10
2018,04,07,12,59,13.10
2018,04,07,13,00,13.10
2018,04,07,13,01,13.00
2018,04,07,13,02,13.00
2018,04,07,13,03,13.00
2018,04,07,13,04,13.00
2018,04,07,13,05,13.00
2018,04,07,13,06,13.00
2018,04,07,13,07,13.00
2018,04,07,13,08,13.00
2018,04,07,13,09,13.00
2018,04,07,13,10,13.10
2018,04,07,13,11,13.10
2018,04,07,13,12,13.10
2018,04,07,13,13,13.10
2018,04,07,13,14,13.10
2018,04,07,13,15,13.10
2018,04,07,13,16,13.20
2018,04,07,13,17,13.20
2018,04,07,13,18,13.20
2018,04,07,13,19,13.30
2018,04,07,13,20,13.30
2018,04,07,13,21,13.40
2018,04,07,13,22,13.40
2018,04,07,13,23,13.40
2018,04,07,13,24,13.40
2018,04,07,13,25,13.30
2018,04,07,13,26,13.30
2018,04,07,13,27,13.30
2018,04,07,13,28,13.30
2018,04,07,13,29,13.30
2018,04,07,13,30,13.20
2018,04,07,13,31,13.10
2018,04,07,13,32,13.00
2018,04,07,13,33,12.90
2018,04,07,13,34,12.90
2018,04,07,13,35,12.90
2018,04,07,13,36,12.80
2018,04,07,13,37,12.80
2018,04,07,13,38,12.80
2018,04,07,13,39,12.70
2018,04,07,13,40,12.70
2018,04,07,13,41,12.60
2018,04,07,13,42,12.60
2018,04,07,13,43,12.60
2018,04,07,13,44,12.60
2018,04,07,13,45,12.60
2018,04,07,13,46,12.60
2018,04,07,13,47,12.60
2018,04,07,13,48,12.50
2018,04,07,13,49,12.50
2018,04,07,13,50,12.40
2018,04,07,13,51,12.40
2018,04,07,13,52,12.50
2018,04,07,13,53,12.40
2018,04,07,13,54,12.40
2018,04,07,13,55,12.40
2018,04,07,13,56,12.40
2018,04,07,13,57,12.40
2018,04,07,13,58,12.30
2018,04,07,13,59,12.30
2018,04,07,14,00,12.30
2018,04,07,14,01,12.30
2018,04,07,14,02,12.30
2018,04,07,14,03,12.30
2018,04,07,14,04,12.40
2018,04,07,14,05,12.40
2018,04,07,14,06,12.40
2018,04,07,14,07,12.50
2018,04,07,14,08,12.50
2018,04,07,14,09,12.50
2018,04,07,14,10,12.60
2018,04,07,14,11,12.60
2018,04,07,14,12,12.60
2018,04,07,14,13,12.70
2018,04,07,14,14,12.70
2018,04,07,14,15,12.80
2018,04,07,14,16,12.80
2018,04,07,14,17,12.80
2018,04,07,14,18,12.80
2018,04,07,14,19,12.80
2018,04,07,14,20,12.80
2018,04,07,14,21,12.80
2018,04,07,14,22,12.80
2018,04,07,14,23,12.80
2018,04,07,14,24,12.90
2018,04,07,14,25,12.90
2018,04,07,14,26,13.00
2018,04,07,14,27,13.10
2018,04,07,14,28,13.10
2018,04,07,14,29,13.20
2018,04,07,14,30,13.20
2018,04,07,14,31,13.10
2018,04,07,14,32,13.10
2018,04,07,14,33,13.10
2018,04,07,14,34,13.10
2018,04,07,14,35,13.20
2018,04,07,14,36,13.10
2018,04,07,14,37,13.10
2018,04,07,14,38,13.10
2018,04,07,14,39,13.00
2018,04,07,14,40,13.00
2018,04,07,14,41,12.90
2018,04,07,14,42,12.90
2018,04,07,14,43,12.80
2018,04,07,14,44,12.80
2018,04,07,14,45,12.70
2018,04,07,14,46,12.70
2018,04,07,14,47,12.60
2018,04,07,14,48,12.60
2018,04,07,14,49,12.60
2018,04,07,14,50,12.60
2018,04,07,14,51,12.50
2018,04,07,14,52,12.50
2018,04,07,14,53,12.40
2018,04,07,14,54,12.40
2018,04,07,14,55,12.40
2018,04,07,14,56,12.40
2018,04,07,14,57,12.40
2018,04,07,14,58,12.40
2018,04,07,14,59,12.40
2018,04,07,15,00,12.40
2018,04,07,15,01,12.40
2018,04,07,15,02,12.40
2018,04,07,15,03,12.50
2018,04,07,15,04,12.50
2018,04,07,15,05,12.60
2018,04,07,15,06,12.60
2018,04,07,15,07,12.70
2018,04,07,15,08,12.70
2018,04,07,15,09,12.60
2018,04,07,15,10,12.60
2018,04,07,15,11,12.60
2018,04,07,15,12,12.60
2018,04,07,15,13,12.60
2018,04,07,15,14,12.60
2018,04,07,15,15,12.60
2018,04,07,15,16,12.70
2018,04,07,15,17,12.70
2018,04,07,15,18,12.70
2018,04,07,15,19,12.60
2018,04,07,15,20,12.60
2018,04,07,15,21,12.60
2018,04,07,15,22,12.60
2018,04,07,15,23,12.60
2018,04,07,15,24,12.60
2018,04,07,15,25,12.50
2018,04,07,15,26,12.50
2018,04,07,15,27,12.50
2018,04,07,15,28,12.40
2018,04,07,15,29,12.40
2018,04,07,15,30,12.40
2018,04,07,15,31,12.40
2018,04,07,15,32,12.40
2018,04,07,15,33,12.40
2018,04,07,15,34,12.40
2018,04,07,15,35,12.40
2018,04,07,15,36,12.40
2018,04,07,15,37,12.40
2018,04,07,15,38,12.40
2018,04,07,15,39,12.40
2018,04,07,15,40,12.40
2018,04,07,15,41,12.40
2018,04,07,15,42,12.40
2018,04,07,15,43,12.40
2018,04,07,15,44,12.40
2018,04,07,15,45,12.40
2018,04,07,15,46,12.40
2018,04,07,15,47,12.40
2018,04,07,15,48,12.40
2018,04,07,15,49,12.50
2018,04,07,15,50,12.50
2018,04,07,15,51,12.50
2018,04,07,15,52,12.50
2018,04,07,15,53,12.60
2018,04,07,15,54,12.60
2018,04,07,15,55,12.50
2018,04,07,15,56,12.50
2018,04,07,15,57,12.50
2018,04,07,15,58,12.50
2018,04,07,15,59,12.40
2018,04,07,16,00,12.40
2018,04,07,16,01,12.40
2018,04,07,16,02,12.30
2018,04,07,16,03,12.30
2018,04,07,16,04,12.30
2018,04,07,16,05,12.20
2018,04,07,16,06,12.20
2018,04,07,16,07,12.20
2018,04,07,16,08,12.20
2018,04,07,16,09,12.10
2018,04,07,16,10,12.10
2018,04,07,16,11,12.10
2018,04,07,16,12,12.10
2018,04,07,16,13,12.10
2018,04,07,16,14,12.10
2018,04,07,16,15,12.10
2018,04,07,16,16,12.10
2018,04,07,16,17,12.00
2018,04,07,16,18,12.00
2018,04,07,16,19,12.00
2018,04,07,16,20,11.90
2018,04,07,16,21,11.90
2018,04,07,16,22,11.90
2018,04,07,16,23,11.80
2018,04,07,16,24,11.80
2018,04,07,16,25,11.80
2018,04,07,16,26,11.70
2018,04,07,16,27,11.70
2018,04,07,16,28,11.70
2018,04,07,16,29,11.60
2018,04,07,16,30,11.60
2018,04,07,16,31,11.50
2018,04,07,16,32,11.50
2018,04,07,16,33,11.40
2018,04,07,16,34,11.40
2018,04,07,16,35,11.40
2018,04,07,16,36,11.40
2018,04,07,16,37,11.30
2018,04,07,16,38,11.30
2018,04,07,16,39,11.30
2018,04,07,16,40,11.30
2018,04,07,16,41,11.30
2018,04,07,16,42,11.40
2018,04,07,16,43,11.40
2018,04,07,16,44,11.40
2018,04,07,16,45,11.50
2018,04,07,16,46,11.50
2018,04,07,16,47,11.60
2018,04,07,16,48,11.60
2018,04,07,16,49,11.60
2018,04,07,16,50,11.60
2018,04,07,16,51,11.60
2018,04,07,16,52,11.60
2018,04,07,16,53,11.60
2018,04,07,16,54,11.60
2018,04,07,16,55,11.60
2018,04,07,16,56,11.60
2018,04,07,16,57,11.60
2018,04,07,16,58,11.60
2018,04,07,16,59,11.60
2018,04,07,17,00,11.60
2018,04,07,17,01,11.60
2018,04,07,17,02,11.60
2018,04,07,17,03,11.50
2018,04,07,17,04,11.50
2018,04,07,17,05,11.40
2018,04,07,17,06,11.40
2018,04,07,17,07,11.40
2018,04,07,17,08,11.40
2018,04,07,17,09,11.40
2018,04,07,17,10,11.30
2018,04,07,17,11,11.30
2018,04,07,17,12,11.30
2018,04,07,17,13,11.30
2018,04,07,17,14,11.30
2018,04,07,17,15,11.20
2018,04,07,17,16,11.20
2018,04,07,17,17,11.20
2018,04,07,17,18,11.20
2018,04,07,17,19,11.20
2018,04,07,17,20,11.20
2018,04,07,17,21,11.20
2018,04,07,17,22,11.20
2018,04,07,17,23,11.20
2018,04,07,17,24,11.20
2018,04,07,17,25,11.20
2018,04,07,17,26,11.20
2018,04,07,17,27,11.20
2018,04,07,17,28,11.20
2018,04,07,17,29,11.20
2018,04,07,17,30,11.20
2018,04,07,17,31,11.20
2018,04,07,17,32,11.20
2018,04,07,17,33,11.20
2018,04,07,17,34,11.20
2018,04,07,17,35,11.20
2018,04,07,17,36,11.20
2018,04,07,17,37,11.20
2018,04,07,17,38,11.20
2018,04,07,17,39,11.20
2018,04,07,17,40,11.20
2018,04,07,17,41,11.20
2018,04,07,17,42,11.20
2018,04,07,17,43,11.20
2018,04,07,17,44,11.20
2018,04,07,17,45,11.20
2018,04,07,17,46,11.20
2018,04,07,17,47,11.20
2018,04,07,17,48,11.20
2018,04,07,17,49,11.10
2018,04,07,17,50,11.10
2018,04,07,17,51,11.10
2018,04,07,17,52,11.10
2018,04,07,17,53,11.00
2018,04,07,17,54,11.00
2018,04,07,17,55,11.00
2018,04,07,17,56,11.00
2018,04,07,17,57,11.00
2018,04,07,17,58,11.00
2018,04,07,17,59,11.00
2018,04,07,18,00,11.10
2018,04,07,18,01,11.10
2018,04,07,18,02,11.10
2018,04,07,18,03,11.10
2018,04,07,18,04,11.10
2018,04,07,18,05,11.20
2018,04,07,18,06,11.20
2018,04,07,18,07,11.10
2018,04,07,18,08,11.10
2018,04,07,18,09,11.10
2018,04,07,18,10,11.10
2018,04,07,18,11,11.10
2018,04,07,18,12,11.10
2018,04,07,18,13,11.10
2018,04,07,18,14,11.10
2018,04,07,18,15,11.10
2018,04,07,18,16,11.00
2018,04,07,18,17,11.00
2018,04,07,18,18,11.00
2018,04,07,18,19,11.00
2018,04,07,18,20,11.00
2018,04,07,18,21,11.00
2018,04,07,18,22,11.00
2018,04,07,18,23,11.00
2018,04,07,18,24,10.90
2018,04,07,18,25,10.90
2018,04,07,18,26,10.90
2018,04,07,18,27,10.90
2018,04,07,18,28,10.90
2018,04,07,18,29,10.90
2018,04,07,18,30,10.90
2018,04,07,18,31,10.90
2018,04,07,18,32,10.90
2018,04,07,18,33,10.80
2018,04,07,18,34,10.80
2018,04,07,18,35,10.80
2018,04,07,18,36,10.80
2018,04,07,18,37,10.80
2018,04,07,18,38,10.80
2018,04,07,18,39,10.80
2018,04,07,18,40,10.80
2018,04,07,18,41,10.80
2018,04,07,18,42,10.80
2018,04,07,18,43,10.70
2018,04,07,18,44,10.70
2018,04,07,18,45,10.70
2018,04,07,18,46,10.70
2018,04,07,18,47,10.70
2018,04,07,18,48,10.70
2018,04,07,18,49,10.70
2018,04,07,18,50,10.70
2018,04,07,18,51,10.70
2018,04,07,18,52,10.70
2018,04,07,18,53,10.70
2018,04,07,18,54,10.70
2018,04,07,18,55,10.70
2018,04,07,18,56,10.70
2018,04,07,18,57,10.70
2018,04,07,18,58,10.70
2018,04,07,18,59,10.70
2018,04,07,19,00,10.70
2018,04,07,19,01,10.70
2018,04,07,19,02,10.70
2018,04,07,19,03,10.70
2018,04,07,19,04,10.70
2018,04,07,19,05,10.70
2018,04,07,19,06,10.70
2018,04,07,19,07,10.70
2018,04,07,19,08,10.60
2018,04,07,19,09,10.60
2018,04,07,19,10,10.60
2018,04,07,19,11,10.60
2018,04,07,19,12,10.60
2018,04,07,19,13,10.60
2018,04,07,19,14,10.50
2018,04,07,19,15,10.50
2018,04,07,19,16,10.50
2018,04,07,19,17,10.50
2018,04,07,19,18,10.40
2018,04,07,19,19,10.40
2018,04,07,19,20,10.40
2018,04,07,19,21,10.40
2018,04,07,19,22,10.40
2018,04,07,19,23,10.40
2018,04,07,19,24,10.30
2018,04,07,19,25,10.30
2018,04,07,19,26,10.30
2018,04,07,19,27,10.30
2018,04,07,19,28,10.30
2018,04,07,19,29,10.20
2018,04,07,19,30,10.20
2018,04,07,19,31,10.20
2018,04,07,19,32,10.20
2018,04,07,19,33,10.20
2018,04,07,19,34,10.20
2018,04,07,19,35,10.20
2018,04,07,19,36,10.20
2018,04,07,19,37,10.10
2018,04,07,19,38,10.10
2018,04,07,19,39,10.10
2018,04,07,19,40,10.10
2018,04,07,19,41,10.10
2018,04,07,19,42,10.10
2018,04,07,19,43,10.10
2018,04,07,19,44,10.10
2018,04,07,19,45,10.00
2018,04,07,19,46,10.00
2018,04,07,19,47,10.00
2018,04,07,19,48,10.00
2018,04,07,19,49,10.00
2018,04,07,19,50,10.00
2018,04,07,19,51,10.00
2018,04,07,19,52,9.90
2018,04,07,19,53,9.90
2018,04,07,19,54,9.90
2018,04,07,19,55,9.90
2018,04,07,19,56,9.90
2018,04,07,19,57,9.90
2018,04,07,19,58,9.90
2018,04,07,19,59,9.90
2018,04,07,20,00,9.80
2018,04,07,20,01,9.80
2018,04,07,20,02,9.80
2018,04,07,20,03,9.80
2018,04,07,20,04,9.80
2018,04,07,20,05,9.80
2018,04,07,20,06,9.80
2018,04,07,20,07,9.80
2018,04,07,20,08,9.80
2018,04,07,20,09,9.80
2018,04,07,20,10,9.80
2018,04,07,20,11,9.80
2018,04,07,20,12,9.80
2018,04,07,20,13,9.80
2018,04,07,20,14,9.80
2018,04,07,20,15,9.80
2018,04,07,20,16,9.80
2018,04,07,20,17,9.80
2018,04,07,20,18,9.80
2018,04,07,20,19,9.80
2018,04,07,20,20,9.80
2018,04,07,20,21,9.80
2018,04,07,20,22,9.80
2018,04,07,20,23,9.80
2018,04,07,20,24,9.80
2018,04,07,20,25,9.80
2018,04,07,20,26,9.80
2018,04,07,20,27,9.80
2018,04,07,20,28,9.80
2018,04,07,20,29,9.80
2018,04,07,20,30,9.80
2018,04,07,20,31,9.80
2018,04,07,20,32,9.80
2018,04,07,20,33,9.80
2018,04,07,20,34,9.70
2018,04,07,20,35,9.70
2018,04,07,20,36,9.70
2018,04,07,20,37,9.70
2018,04,07,20,38,9.70
2018,04,07,20,39,9.70
2018,04,07,20,40,9.60
2018,04,07,20,41,9.60
2018,04,07,20,42,9.60
2018,04,07,20,43,9.60
2018,04,07,20,44,9.60
2018,04,07,20,45,9.60
2018,04,07,20,46,9.60
2018,04,07,20,47,9.50
2018,04,07,20,48,9.50
2018,04,07,20,49,9.50
2018,04,07,20,50,9.50
2018,04,07,20,51,9.50
2018,04,07,20,52,9.40
2018,04,07,20,53,9.40
2018,04,07,20,54,9.40
2018,04,07,20,55,9.40
2018,04,07,20,56,9.40
2018,04,07,20,57,9.40
2018,04,07,20,58,9.40
2018,04,07,20,59,9.40
2018,04,07,21,00,9.40
2018,04,07,21,01,9.40
2018,04,07,21,02,9.40
2018,04,07,21,03,9.40
2018,04,07,21,04,9.40
2018,04,07,21,05,9.40
2018,04,07,21,06,9.30
2018,04,07,21,07,9.30
2018,04,07,21,08,9.30
2018,04,07,21,09,9.30
2018,04,07,21,10,9.30